Location: Newark
(43.4545°N, 5.8521°W)
Time: 02:13:49
(UTC+00:00)

ISS - Pass Details

Date: 20 November 2019
Orbit: 411 x 421 km, 51.6° (Epoch: 08 December)

Event Time Altitude Azimuth Distance (km) Brightness Sun altitude
Rises 18:58:03 0° 211° (SSW) 2,343 0.6 -22.2°
Reaches altitude 10° 19:00:17 10° 200° (SSW) 1,487 -0.7 -22.6°
Enters shadow 19:01:18 17° 189° (S) 1,141 -1.4 -22.8°
